| time (UTC) | temp F | wind direction | speed MPH | gust MPH | rain 1hr in | rain 24hr in | rain mn in | humidity % | barometer mb |
| 20260906234516 | 70 | 68 | 1.0 | 3.0 | 0.00 | 0.03 | 0.03 | 96 | 1017.1 |
| 20260906233516 | 70 | 68 | 1.0 | 2.0 | 0.00 | 0.03 | 0.03 | 96 | 1017.2 |
| 20260906232517 | 70 | 0.0 | 0.0 | 0.00 | 0.03 | 0.03 | 96 | 1017.3 | |
| 20260906231536 | 70 | 0.0 | 0.0 | 0.00 | 0.03 | 0.03 | 96 | 1017.3 | |
| 20260906230517 | 70 | 0.0 | 0.0 | 0.00 | 0.03 | 0.03 | 96 | 1017.3 | |
| 20260906225517 | 70 | 0.0 | 0.0 | 0.00 | 0.03 | 0.03 | 96 | 1017.4 | |
| 20260906224516 | 70 | 45 | 1.0 | 4.0 | 0.00 | 0.03 | 0.03 | 96 | 1017.1 |
| 20260906223516 | 70 | 0.0 | 2.0 | 0.00 | 0.03 | 0.03 | 96 | 1017.0 | |
| 20260906222516 | 70 | 23 | 1.0 | 4.0 | 0.00 | 0.03 | 0.03 | 96 | 1016.8 |
| 20260906221516 | 70 | 23 | 1.0 | 5.0 | 0.00 | 0.03 | 0.03 | 96 | 1016.5 |
| 20260906220516 | 70 | 45 | 1.0 | 4.0 | 0.00 | 0.03 | 0.03 | 96 | 1015.9 |
| 20260906215516 | 70 | 68 | 1.0 | 3.0 | 0.00 | 0.03 | 0.03 | 96 | 1015.8 |
| 20260906214516 | 70 | 68 | 2.0 | 4.0 | 0.00 | 0.03 | 0.03 | 97 | 1015.9 |
| 20260906213536 | 70 | 68 | 2.0 | 5.0 | 0.00 | 0.03 | 0.03 | 96 | 1016.0 |
| 20260906212516 | 70 | 45 | 1.0 | 3.0 | 0.00 | 0.03 | 0.03 | 96 | 1016.2 |
| 20260906211516 | 70 | 45 | 2.0 | 5.0 | 0.00 | 0.03 | 0.03 | 96 | 1016.2 |
| 20260906210516 | 71 | 45 | 4.0 | 8.0 | 0.00 | 0.03 | 0.03 | 96 | 1016.1 |
| 20260906205516 | 72 | 45 | 3.0 | 5.0 | 0.00 | 0.03 | 0.03 | 96 | 1016.3 |
| 20260906204536 | 72 | 23 | 1.0 | 5.0 | 0.00 | 0.03 | 0.03 | 96 | 1016.4 |
| 20260906203516 | 71 | 45 | 3.0 | 8.0 | 0.01 | 0.03 | 0.03 | 96 | 1016.1 |
| 20260906202516 | 71 | 90 | 2.0 | 4.0 | 0.01 | 0.03 | 0.03 | 97 | 1016.3 |
| 20260906201516 | 71 | 23 | 2.0 | 5.0 | 0.01 | 0.03 | 0.03 | 97 | 1017.2 |
| 20260906200516 | 71 | 0.0 | 3.0 | 0.01 | 0.03 | 0.03 | 97 | 1017.5 | |
| 20260906195516 | 71 | 113 | 1.0 | 3.0 | 0.01 | 0.03 | 0.03 | 97 | 1017.7 |
| 20260906194516 | 71 | 0.0 | 0.0 | 0.02 | 0.03 | 0.03 | 97 | 1017.4 | |
| 20260906193516 | 71 | 0.0 | 1.0 | 0.01 | 0.02 | 0.02 | 97 | 1017.4 | |
| 20260906192537 | 71 | 23 | 1.0 | 4.0 | 0.01 | 0.02 | 0.02 | 97 | 1017.2 |
| 20260906191516 | 71 | 90 | 3.0 | 9.0 | 0.01 | 0.02 | 0.02 | 97 | 1017.2 |
| 20260906190516 | 71 | 90 | 8.0 | 12.0 | 0.01 | 0.02 | 0.02 | 97 | 1017.1 |
| 20260906185516 | 71 | 68 | 5.0 | 13.0 | 0.01 | 0.02 | 0.02 | 96 | 1017.7 |
| 20260906184516 | 71 | 90 | 4.0 | 11.0 | 0.00 | 0.01 | 0.01 | 96 | 1018.2 |
| 20260906183516 | 71 | 45 | 1.0 | 3.0 | 0.00 | 0.01 | 0.01 | 96 | 1017.4 |
| 20260906182516 | 71 | 90 | 4.0 | 8.0 | 0.00 | 0.01 | 0.01 | 96 | 1017.9 |
| 20260906181516 | 71 | 68 | 2.0 | 4.0 | 0.01 | 0.01 | 0.01 | 96 | 1018.1 |
| 20260906180516 | 72 | 0.0 | 2.0 | 0.01 | 0.01 | 0.01 | 96 | 1017.9 | |
| 20260906175516 | 72 | 45 | 2.0 | 3.0 | 0.01 | 0.01 | 0.01 | 96 | 1018.1 |
| 20260906174517 | 72 | 0.0 | 3.0 | 0.01 | 0.01 | 0.01 | 96 | 1018.4 | |
| 20260906173536 | 72 | 68 | 2.0 | 9.0 | 0.01 | 0.01 | 0.01 | 96 | 1017.8 |
| 20260906172516 | 72 | 68 | 4.0 | 10.0 | 0.01 | 0.01 | 0.01 | 96 | 1018.0 |
| 20260906171516 | 72 | 68 | 2.0 | 3.0 | 0.00 | 0.00 | 0.00 | 95 | 1017.7 |
| 20260906170515 | 72 | 68 | 2.0 | 6.0 | 0.00 | 0.00 | 0.00 | 95 | 1017.6 |
| 20260906165515 | 72 | 68 | 3.0 | 7.0 | 0.00 | 0.00 | 0.00 | 95 | 1018.0 |
| 20260906164516 | 73 | 45 | 3.0 | 6.0 | 0.00 | 0.00 | 0.00 | 94 | 1017.5 |
| 20260906163515 | 73 | 68 | 3.0 | 6.0 | 0.00 | 0.00 | 0.00 | 93 | 1017.4 |
| 20260906162516 | 73 | 68 | 2.0 | 5.0 | 0.00 | 0.00 | 0.00 | 94 | 1017.9 |
| 20260906161536 | 72 | 68 | 1.0 | 5.0 | 0.00 | 0.00 | 0.00 | 94 | 1017.8 |
| 20260906160536 | 72 | 90 | 2.0 | 4.0 | 0.00 | 0.00 | 0.00 | 94 | 1017.7 |
| 20260906155535 | 72 | 68 | 2.0 | 5.0 | 0.00 | 0.00 | 0.00 | 93 | 1017.7 |
| 20260906154556 | 73 | 45 | 2.0 | 4.0 | 0.00 | 0.00 | 0.00 | 93 | 1017.8 |
| 20260906153517 | 72 | 45 | 1.0 | 2.0 | 0.00 | 0.00 | 0.00 | 93 | 1017.7 |
| 20260906152536 | 72 | 45 | 2.0 | 5.0 | 0.00 | 0.00 | 0.00 | 93 | 1017.4 |
| 20260906151518 | 73 | 45 | 2.0 | 9.0 | 0.00 | 0.00 | 0.00 | 93 | 1017.1 |
| 20260906150518 | 73 | 68 | 2.0 | 5.0 | 0.00 | 0.00 | 0.00 | 92 | 1017.7 |
| 20260906145539 | 72 | 68 | 2.0 | 4.0 | 0.00 | 0.00 | 0.00 | 93 | 1017.6 |
| 20260906144518 | 72 | 45 | 2.0 | 3.0 | 0.00 | 0.00 | 0.00 | 93 | 1017.6 |
| 20260906143537 | 72 | 90 | 1.0 | 4.0 | 0.00 | 0.00 | 0.00 | 93 | 1017.6 |
| 20260906142518 | 72 | 90 | 2.0 | 8.0 | 0.00 | 0.00 | 0.00 | 93 | 1017.5 |
| 20260906141518 | 72 | 68 | 2.0 | 5.0 | 0.00 | 0.00 | 0.00 | 93 | 1017.6 |
| 20260906140517 | 72 | 45 | 2.0 | 5.0 | 0.00 | 0.00 | 0.00 | 93 | 1017.4 |
| 20260906135517 | 72 | 68 | 3.0 | 7.0 | 0.00 | 0.00 | 0.00 | 93 | 1017.4 |
| 20260906134537 | 72 | 68 | 4.0 | 9.0 | 0.00 | 0.00 | 0.00 | 92 | 1017.5 |
| 20260906133518 | 72 | 68 | 2.0 | 8.0 | 0.00 | 0.00 | 0.00 | 93 | 1017.3 |
| 20260906132518 | 72 | 68 | 3.0 | 7.0 | 0.00 | 0.00 | 0.00 | 93 | 1017.3 |
| 20260906131518 | 72 | 68 | 2.0 | 6.0 | 0.00 | 0.00 | 0.00 | 93 | 1017.2 |
| 20260906130518 | 71 | 68 | 2.0 | 9.0 | 0.00 | 0.00 | 0.00 | 94 | 1017.0 |
| 20260906125517 | 71 | 68 | 2.0 | 6.0 | 0.00 | 0.00 | 0.00 | 95 | 1017.0 |
| 20260906124517 | 70 | 45 | 1.0 | 3.0 | 0.00 | 0.00 | 0.00 | 95 | 1017.0 |
| 20260906123517 | 70 | 45 | 1.0 | 5.0 | 0.00 | 0.00 | 0.00 | 95 | 1017.0 |
| 20260906122518 | 70 | 0.0 | 0.0 | 0.00 | 0.00 | 0.00 | 96 | 1017.0 | |
| 20260906121518 | 70 | 68 | 1.0 | 2.0 | 0.00 | 0.00 | 0.00 | 96 | 1017.0 |
| 20260906120517 | 70 | 68 | 1.0 | 3.0 | 0.00 | 0.00 | 0.00 | 96 | 1016.8 |
| 20260906115537 | 70 | 0.0 | 0.0 | 0.00 | 0.00 | 0.00 | 96 | 1016.7 | |
| 20260906114517 | 70 | 0.0 | 1.0 | 0.00 | 0.00 | 0.00 | 96 | 1016.7 | |
| 20260906113517 | 70 | 0.0 | 0.0 | 0.00 | 0.00 | 0.00 | 96 | 1016.8 | |
| 20260906112518 | 70 | 0.0 | 0.0 | 0.00 | 0.00 | 0.00 | 96 | 1016.8 | |
| 20260906111537 | 70 | 0.0 | 0.0 | 0.00 | 0.00 | 0.00 | 96 | 1016.8 | |
| 20260906110538 | 70 | 0.0 | 0.0 | 0.00 | 0.00 | 0.00 | 96 | 1016.7 | |
| 20260906105517 | 70 | 0.0 | 0.0 | 0.00 | 0.00 | 0.00 | 96 | 1016.6 | |
| 20260906104517 | 71 | 0.0 | 0.0 | 0.00 | 0.00 | 0.00 | 96 | 1016.7 | |
| 20260906103517 | 71 | 0.0 | 0.0 | 0.00 | 0.00 | 0.00 | 95 | 1016.7 | |
| 20260906102517 | 71 | 0.0 | 0.0 | 0.00 | 0.00 | 0.00 | 95 | 1016.7 | |
| 20260906101537 | 71 | 68 | 1.0 | 3.0 | 0.00 | 0.00 | 0.00 | 95 | 1016.9 |
| 20260906100537 | 71 | 68 | 1.0 | 4.0 | 0.00 | 0.00 | 0.00 | 95 | 1016.7 |
| 20260906095517 | 71 | 68 | 1.0 | 3.0 | 0.00 | 0.00 | 0.00 | 96 | 1016.4 |
| 20260906094517 | 71 | 68 | 2.0 | 4.0 | 0.00 | 0.00 | 0.00 | 96 | 1016.3 |
| 20260906093517 | 71 | 68 | 1.0 | 4.0 | 0.00 | 0.00 | 0.00 | 96 | 1016.3 |
| 20260906092517 | 71 | 68 | 1.0 | 5.0 | 0.00 | 0.00 | 0.00 | 96 | 1016.2 |
| 20260906091517 | 71 | 68 | 1.0 | 3.0 | 0.00 | 0.00 | 0.00 | 96 | 1016.2 |
| 20260906090517 | 71 | 0.0 | 0.0 | 0.00 | 0.00 | 0.00 | 96 | 1016.2 | |
| 20260906085537 | 71 | 68 | 1.0 | 2.0 | 0.00 | 0.00 | 0.00 | 96 | 1016.1 |
| 20260906084517 | 71 | 0.0 | 2.0 | 0.00 | 0.00 | 0.00 | 96 | 1016.1 | |
| 20260906083517 | 71 | 0.0 | 0.0 | 0.00 | 0.00 | 0.00 | 96 | 1016.1 | |
| 20260906082517 | 71 | 0.0 | 2.0 | 0.00 | 0.00 | 0.00 | 96 | 1016.3 | |
| 20260906081537 | 71 | 45 | 2.0 | 4.0 | 0.00 | 0.00 | 0.00 | 95 | 1016.3 |
| 20260906080537 | 72 | 68 | 1.0 | 5.0 | 0.00 | 0.00 | 0.00 | 95 | 1016.2 |
| 20260906075517 | 72 | 68 | 1.0 | 2.0 | 0.00 | 0.00 | 0.00 | 95 | 1016.0 |
| 20260906074517 | 72 | 68 | 1.0 | 4.0 | 0.00 | 0.00 | 0.00 | 95 | 1015.9 |
| 20260906073517 | 72 | 68 | 1.0 | 3.0 | 0.00 | 0.00 | 0.00 | 95 | 1016.1 |
| 20260906072517 | 72 | 68 | 1.0 | 3.0 | 0.00 | 0.00 | 0.00 | 95 | 1016.2 |
| 20260906071517 | 72 | 68 | 1.0 | 3.0 | 0.00 | 0.00 | 0.00 | 95 | 1016.2 |
| 20260906070517 | 72 | 68 | 1.0 | 6.0 | 0.00 | 0.00 | 0.00 | 95 | 1016.0 |
| 20260906065517 | 72 | 68 | 2.0 | 3.0 | 0.00 | 0.00 | 0.00 | 95 | 1015.9 |
| 20260906064517 | 72 | 45 | 2.0 | 5.0 | 0.00 | 0.00 | 0.00 | 95 | 1016.0 |
| 20260906063517 | 72 | 68 | 1.0 | 4.0 | 0.00 | 0.00 | 0.00 | 95 | 1016.2 |
| 20260906062557 | 72 | 68 | 1.0 | 2.0 | 0.00 | 0.00 | 0.00 | 95 | 1016.3 |
| 20260906061516 | 72 | 68 | 1.0 | 3.0 | 0.00 | 0.00 | 0.00 | 95 | 1016.5 |
| 20260906060517 | 72 | 0.0 | 0.0 | 0.00 | 0.00 | 0.00 | 95 | 1016.4 | |
| 20260906055517 | 73 | 0.0 | 1.0 | 0.00 | 0.00 | 0.00 | 95 | 1016.4 | |
| 20260906054517 | 73 | 68 | 1.0 | 2.0 | 0.00 | 0.00 | 0.00 | 95 | 1016.4 |
| 20260906053517 | 73 | 68 | 1.0 | 3.0 | 0.00 | 0.00 | 0.00 | 95 | 1016.3 |
| 20260906052517 | 73 | 68 | 1.0 | 2.0 | 0.00 | 0.00 | 0.00 | 95 | 1016.2 |
| 20260906051517 | 73 | 45 | 1.0 | 3.0 | 0.00 | 0.00 | 0.00 | 95 | 1016.2 |
| 20260906050516 | 73 | 23 | 1.0 | 3.0 | 0.00 | 0.00 | 0.00 | 95 | 1016.2 |
| 20260906045517 | 73 | 0.0 | 2.0 | 0.00 | 0.00 | 0.00 | 94 | 1016.1 | |
| 20260906044537 | 73 | 0.0 | 2.0 | 0.00 | 0.00 | 0.00 | 94 | 1015.9 | |
| 20260906043518 | 73 | 0.0 | 2.0 | 0.00 | 0.00 | 0.00 | 94 | 1015.8 | |
| 20260906042518 | 73 | 68 | 1.0 | 2.0 | 0.00 | 0.00 | 0.00 | 94 | 1015.9 |
| 20260906041517 | 74 | 68 | 1.0 | 2.0 | 0.00 | 0.00 | 0.00 | 93 | 1015.8 |
| 20260906040517 | 74 | 0.0 | 2.0 | 0.00 | 0.00 | 0.00 | 93 | 1015.8 | |
| 20260906035517 | 74 | 68 | 1.0 | 6.0 | 0.00 | 0.00 | 0.00 | 93 | 1015.7 |
| 20260906034517 | 74 | 68 | 1.0 | 3.0 | 0.00 | 0.00 | 0.00 | 92 | 1015.6 |
| 20260906033517 | 74 | 90 | 1.0 | 5.0 | 0.00 | 0.00 | 0.00 | 92 | 1015.6 |
| 20260906032537 | 74 | 45 | 2.0 | 3.0 | 0.00 | 0.00 | 0.00 | 92 | 1015.6 |
| 20260906031518 | 75 | 45 | 1.0 | 3.0 | 0.00 | 0.00 | 0.00 | 92 | 1015.8 |
| 20260906030517 | 75 | 68 | 2.0 | 5.0 | 0.00 | 0.00 | 0.00 | 91 | 1015.7 |
| 20260906025537 | 75 | 0.0 | 2.0 | 0.00 | 0.00 | 0.00 | 91 | 1015.8 | |
| 20260906024537 | 76 | 0.0 | 1.0 | 0.00 | 0.00 | 0.00 | 91 | 1016.1 | |
| 20260906023537 | 76 | 0.0 | 1.0 | 0.00 | 0.00 | 0.00 | 91 | 1016.2 | |
| 20260906022517 | 76 | 45 | 1.0 | 2.0 | 0.00 | 0.00 | 0.00 | 91 | 1016.1 |
| 20260906021516 | 77 | 0.0 | 0.0 | 0.00 | 0.00 | 0.00 | 92 | 1015.9 | |
| 20260906020557 | 77 | 0.0 | 0.0 | 0.00 | 0.00 | 0.00 | 91 | 1015.8 | |
| 20260906015537 | 77 | 0.0 | 0.0 | 0.00 | 0.00 | 0.00 | 91 | 1015.7 | |
| 20260906014517 | 77 | 0.0 | 0.0 | 0.00 | 0.00 | 0.00 | 91 | 1015.5 | |
| 20260906013517 | 78 | 0.0 | 0.0 | 0.00 | 0.00 | 0.00 | 92 | 1015.3 | |
| 20260906012517 | 78 | 0.0 | 0.0 | 0.00 | 0.00 | 0.00 | 92 | 1015.1 | |
| 20260906011617 | 78 | 0.0 | 0.0 | 0.00 | 0.00 | 0.00 | 91 | 1015.0 | |
| 20260906010516 | 78 | 0.0 | 0.0 | 0.00 | 0.00 | 0.00 | 91 | 1015.0 | |
| 20260906005517 | 78 | 0.0 | 0.0 | 0.00 | 0.00 | 0.00 | 90 | 1014.9 | |
| 20260906004517 | 79 | 0.0 | 0.0 | 0.00 | 0.00 | 0.00 | 90 | 1014.9 | |
| 20260906003516 | 79 | 0.0 | 0.0 | 0.00 | 0.00 | 0.00 | 89 | 1015.0 | |
| 20260906002516 | 79 | 0.0 | 0.0 | 0.00 | 0.00 | 0.00 | 89 | 1015.0 | |
| 20260906001517 | 80 | 0.0 | 0.0 | 0.00 | 0.00 | 0.00 | 88 | 1014.9 | |
| 20260906000517 | 80 | 0.0 | 1.0 | 0.00 | 0.00 | 0.00 | 88 | 1014.8 | |
| 20260905235517 | 80 | 0.0 | 0.0 | 0.00 | 0.00 | 0.00 | 87 | 1014.7 |